TimeAKST,TemperatureF,Dew PointF,Humidity,Sea Level PressureIn,VisibilityMPH,Wind Direction,Wind SpeedMPH,Gust SpeedMPH,PrecipitationIn,Events,Conditions,WindDirDegrees,DateUTC
12:55 AM,-16.1,-21.8,75,29.95,10.0,Calm,Calm,-,N/A,,Overcast,0,2013-01-10 09:55:00
1:55 AM,-12.5,-18.0,76,29.93,10.0,Calm,Calm,-,N/A,,Mostly Cloudy,0,2013-01-10 10:55:00
2:55 AM,-14.1,-19.8,75,29.94,10.0,Calm,Calm,-,N/A,,Overcast,0,2013-01-10 11:55:00
3:55 AM,-8.9,-13.9,79,29.94,10.0,Calm,Calm,-,N/A,,Overcast,0,2013-01-10 12:55:00
4:55 AM,-6.3,-11.2,79,29.95,10.0,Calm,Calm,-,N/A,,Overcast,0,2013-01-10 13:55:00
5:55 AM,-3.6,-8.3,80,29.98,10.0,Calm,Calm,-,N/A,,Overcast,0,2013-01-10 14:55:00
6:55 AM,-1.5,-6.0,81,29.99,10.0,Calm,Calm,-,N/A,,Overcast,0,2013-01-10 15:55:00
7:55 AM,-0.0,-4.4,82,30.02,10.0,Calm,Calm,-,N/A,,Overcast,0,2013-01-10 16:55:00
8:55 AM,0.9,-3.5,82,30.04,10.0,Calm,Calm,-,N/A,,Overcast,0,2013-01-10 17:55:00
9:36 AM,1.4,-2.2,85,30.04,8.0,Calm,Calm,-,N/A,Snow,Light Snow,0,2013-01-10 18:36:00
9:42 AM,3.2,-2.2,78,30.04,9.0,Calm,Calm,-,N/A,Snow,Light Snow,0,2013-01-10 18:42:00
9:52 AM,3.2,-2.2,78,30.05,9.0,Calm,Calm,-,N/A,Snow,Light Snow,0,2013-01-10 18:52:00
9:53 AM,3.2,-2.2,78,30.05,8.0,Calm,Calm,-,N/A,Snow,Light Snow,0,2013-01-10 18:53:00
9:55 AM,2.8,-1.5,82,30.05,8.0,Calm,Calm,-,0.00,Snow,Light Snow,0,2013-01-10 18:55:00
10:06 AM,3.2,-2.2,78,30.04,8.0,Calm,Calm,-,N/A,Snow,Light Snow,0,2013-01-10 19:06:00
10:55 AM,3.0,-1.5,82,30.06,10.0,Calm,Calm,-,0.00,,Overcast,0,2013-01-10 19:55:00
11:21 AM,3.2,-0.4,85,30.06,3.0,Calm,Calm,-,N/A,Snow,Light Snow,0,2013-01-10 20:21:00
11:33 AM,3.2,-0.4,85,30.06,2.0,Calm,Calm,-,N/A,Snow,Light Snow,0,2013-01-10 20:33:00
11:51 AM,3.2,-0.4,85,30.06,3.0,Calm,Calm,-,N/A,Snow,Light Snow,0,2013-01-10 20:51:00
11:55 AM,4.1,-0.2,82,30.06,3.0,Calm,Calm,-,0.00,Snow,Light Snow,0,2013-01-10 20:55:00
12:09 PM,5.0,-0.4,78,30.06,8.0,Calm,Calm,-,N/A,Snow,Light Snow,0,2013-01-10 21:09:00
12:55 PM,6.1,1.9,83,30.07,10.0,Calm,Calm,-,0.00,Snow,Light Snow,0,2013-01-10 21:55:00
1:00 PM,6.8,1.4,79,30.07,4.0,Calm,Calm,-,N/A,Snow,Light Snow,0,2013-01-10 22:00:00
1:40 PM,6.8,3.2,85,30.08,9.0,Calm,Calm,-,N/A,Snow,Light Snow,0,2013-01-10 22:40:00
1:55 PM,7.5,3.4,83,30.08,7.0,Calm,Calm,-,0.00,Snow,Light Snow,0,2013-01-10 22:55:00
2:55 PM,8.4,4.5,84,30.10,1.5,Calm,Calm,-,0.00,Snow,Light Snow,0,2013-01-10 23:55:00
3:19 PM,8.6,5.0,85,30.05,7.0,Calm,Calm,-,N/A,,Overcast,0,2013-01-11 00:19:00
3:55 PM,9.3,5.5,85,30.11,10.0,Calm,Calm,-,0.00,,Overcast,0,2013-01-11 00:55:00
4:55 PM,9.9,6.1,85,30.12,10.0,Calm,Calm,-,N/A,,Mostly Cloudy,0,2013-01-11 01:55:00
5:55 PM,10.8,7.2,85,30.12,10.0,Calm,Calm,-,N/A,,Mostly Cloudy,0,2013-01-11 02:55:00
6:55 PM,11.1,7.5,85,30.11,10.0,Calm,Calm,-,N/A,,Mostly Cloudy,0,2013-01-11 03:55:00
7:55 PM,11.5,7.7,85,30.10,10.0,Calm,Calm,-,N/A,,Mostly Cloudy,0,2013-01-11 04:55:00
8:07 PM,10.4,6.8,85,30.10,10.0,Calm,Calm,-,N/A,,Overcast,0,2013-01-11 05:07:00
8:42 PM,8.6,5.0,85,30.10,10.0,Calm,Calm,-,N/A,,Scattered Clouds,0,2013-01-11 05:42:00
8:55 PM,5.0,1.4,85,30.09,10.0,Calm,Calm,-,N/A,,Partly Cloudy,0,2013-01-11 05:55:00
9:50 PM,-2.2,-7.6,78,30.03,10.0,Calm,Calm,-,N/A,,Clear,0,2013-01-11 06:50:00
9:55 PM,-2.2,-6.5,82,30.09,10.0,Calm,Calm,-,N/A,,Clear,0,2013-01-11 06:55:00
10:14 PM,-5.8,-11.2,77,30.07,2.5,Calm,Calm,-,N/A,Snow,Light Snow,0,2013-01-11 07:14:00
10:15 PM,-5.8,-11.2,77,30.07,2.0,Calm,Calm,-,N/A,Snow,Light Snow,0,2013-01-11 07:15:00
10:17 PM,-5.8,-11.2,77,30.07,1.8,Calm,Calm,-,N/A,Snow,Light Snow,0,2013-01-11 07:17:00
10:18 PM,-5.8,-11.2,77,30.07,1.5,Calm,Calm,-,N/A,Snow,Light Snow,0,2013-01-11 07:18:00
10:19 PM,-5.8,-11.2,77,30.07,1.2,Calm,Calm,-,N/A,Snow,Light Snow,0,2013-01-11 07:19:00
10:22 PM,-5.8,-11.2,77,30.07,1.5,Calm,Calm,-,N/A,Snow,Light Snow,0,2013-01-11 07:22:00
10:28 PM,-5.8,-11.2,77,30.06,1.8,Calm,Calm,-,N/A,,Haze,0,2013-01-11 07:28:00
10:29 PM,-7.6,-11.2,84,30.06,2.0,Calm,Calm,-,N/A,,Haze,0,2013-01-11 07:29:00
10:31 PM,-7.6,-11.2,84,30.06,2.5,Calm,Calm,-,N/A,,Haze,0,2013-01-11 07:31:00
10:33 PM,-7.6,-13.0,77,30.06,3.0,Calm,Calm,-,N/A,,Haze,0,2013-01-11 07:33:00
10:35 PM,-7.6,-11.2,84,30.00,7.0,Calm,Calm,-,N/A,,Clear,0,2013-01-11 07:35:00
10:55 PM,-5.8,-11.2,77,30.04,10.0,South,3.5,-,0.00,,Clear,180,2013-01-11 07:55:00
11:55 PM,-5.8,-10.3,81,30.03,10.0,Calm,Calm,-,N/A,,Clear,0,2013-01-11 08:55:00